697  
ASUS45 KPSR 211610  
RWRAZ  
 
ARIZONA HOURLY REGIONAL WEATHER ROUNDUP  
NATIONAL WEATHER SERVICE PHOENIX AZ  
900 AM MST THU OCT 21 2021  
 
NOTE: FAIR INDICATES FEW OR NO CLOUDS BELOW 12,000 FEET WITH NO  
SIGNIFICANT WEATHER AND/OR S TO VISIBILITY
.  
 
AZZ001>003-036-211700-  
NORTHWEST ARIZONA  
 
CITY SKY/WX TMP DP RH WIND PRES REMARKS
 
BULLHEAD CITY MOSUNNY 61 34 36 CALM 30.16R  
KINGMAN FAIR 59 35 40 E3 30.25R  

 
 
AZZ004>008-015-016-018-211700-  
NORTH CENTRAL ARIZONA  
 
CITY SKY/WX TMP DP RH WIND PRES REMARKS
 
GRAND CANYON FAIR 54 29 38 E8 30.39R  
WILLIAMS N/A N/A N/A N/A MISG N/A  
PRESCOTT FAIR 51 36 56 CALM 30.32R  
FLAGSTAFF FAIR 50 30 46 NE5 30.41R  
PAYSON FAIR 63 30 29 CALM 30.33R  
PAGE FAIR 54 30 40 NW3 30.35R  

 
 
AZZ009>014-017-211700-  
NORTHEAST ARIZONA  
 
CITY SKY/WX TMP DP RH WIND PRES REMARKS
 
WINSLOW FAIR 48 32 53 S3 30.37R  
SAINT JOHNS FAIR 50 28 42 NE3 30.36R  
WINDOW ROCK FAIR 46 26 45 CALM 30.43R  
SHOW LOW FAIR 57 28 33 CALM 30.39R  

 
 
AZZ540-542>544-546-548-211700-  
GREATER PHOENIX AREA  
 
CITY SKY/WX TMP DP RH WIND PRES REMARKS
 
PHOENIX FAIR 70 39 32 E8 30.11R  
BUCKEYE N/A 66 39 37 W3 30.14R  
GLENDALE MOSUNNY 72 43 35 CALM 30.13R  
LUKE AFB FAIR 71 37 29 CALM 30.12R  
DEER VALLEY FAIR 70 39 32 CALM 30.14R  
SCOTTSDALE FAIR 69 43 38 CALM 30.14R  
MESA-FALCON FAIR 70 39 32 NE9 30.13R  
MESA-GATEWAY SUNNY 68 39 34 SE5 30.15R  
CHANDLER SUNNY 66 41 39 CALM 30.14R  

 
 
AZZ539-553-211700-  
SOUTHWEST MARICOPA COUNTY AND PINAL COUNTY  
 
CITY SKY/WX TMP DP RH WIND PRES REMARKS
 
CASA GRANDE FAIR 67 39 35 SE5 N/A  
GILA BEND FAIR 68 38 33 NE8 30.10R  

 
 
AZZ503-504-507>509-211700-  
SOUTHEAST ARIZONA  
 
CITY SKY/WX TMP DP RH WIND PRES REMARKS
 
TUCSON FAIR 66 35 31 S6 30.20R  
DAVIS-MONTHAN FAIR 69 33 27 S7 30.18R  
RYAN FIELD SUNNY 64 37 36 E6 30.16R  
NOGALES FAIR 63 36 36 CALM 30.23R  
SIERRA VISTA FAIR 68 32 25 E3 30.29S  
SAFFORD FAIR 64 35 34 CALM 30.23R  

 
 
AZZ532-211700-  
SOUTHWEST ARIZONA  
 
CITY SKY/WX TMP DP RH WIND PRES REMARKS
 
YUMA FAIR 72 40 31 N5 30.09R  

 
 
CAZ041-043-047-048-061-525>527-560>570-211700-  
SOUTHERN CALIFORNIA  
 
CITY SKY/WX TMP DP RH WIND PRES REMARKS
 
DOWNTOWN L.A. FAIR 62 48 60 CALM 30.11R  
L.A. AIRPORT FAIR 61 51 70 SE3 30.12R  
SAN DIEGO FAIR 63 50 62 CALM 30.13R  
BURBANK FAIR 59 37 44 CALM 30.12R  
ONTARIO FAIR 64 40 41 S3 30.13R  
RIVERSIDE FAIR 59 42 53 NE3 30.13R  
PALM SPRINGS FAIR 71 34 25 N5 30.13R  
EL CENTRO NAS FAIR 64 36 35 CALM 30.12R  
IMPERIAL FAIR 65 39 38 W6 30.10R  
NEEDLES FAIR 71 33 24 N7 30.16R  

 
 
NVZ020-UTZ003-211700-  
SOUTHERN NEVADA-UTAH  
 
CITY SKY/WX TMP DP RH WIND PRES REMARKS
 
LAS VEGAS PTSUNNY 63 30 28 CALM 30.23R  
SALT LAKE CITY FAIR 51 37 58 CALM 30.30R  

 
 
NMZ009-TXZ055-211700-  
NEW MEXICO-WEST TEXAS  
 
CITY SKY/WX TMP DP RH WIND PRES REMARKS
 
ALBUQUERQUE FAIR 51 20 29 N7 30.39R  
EL PASO FAIR 66 26 22 N9 30.28R  

 
 
   
.......................KEY.....................
 
 
SKY/WX - SKY CONDITION/WEATHER  
TMP - TEMPERATURE IN FAHRENHEIT  
DP - DEW POINT IN FAHRENHEIT  
RH - RELATIVE HUMIDITY IN PERCENT  
WIND - DIRECTION AND SPEED IN MILES PER HOUR (MPH)  
VRB - VARIABLE WIND DIRECTION  
PRES - MEAN SEA LEVEL PRESSURE IN INCHES OF MERCURY  
F - FALLING PRESSURE R - RISING PRESSURE  
S - STEADY PRESSURE  
VSB - VISIBILITY IN MILES  
HX - HEAT INDEX IN FAHRENHEIT  
WCI - WIND CHILL INDEX IN FAHRENHEIT  
TC - TEMPERATURE IN CELSIUS WHICH IS ALSO KNOWN AS  
TEMPERATURE IN CENTIGRADE  
AFB - AIR FORCE BASE  
LUKE AFB IS LUKE AIR FORCE BASE  
DAVIS-MONTHAN IS DAVIS-MONTHAN AIR FORCE BASE  
NAS - NAVAL AIR STATION  
EL CENTRO NAS IS EL CENTRO NAVAL AIR STATION  
N/A - NOT AVAILABLE  
 
 
 
CLICK HERE TO GO TO PREVIOUS BULLETINS.

The Nexlab AZ Page Main Text Page